Wind_Speed
5 4 7 8 9 5 1 4 5 7 7 6 5 5 5 7 7 8 10 11 12 12 11 10 10 11 12 12 10 10 11 11 10
7 7 6 5 6 9 4 3 7 9 10 9 9 6 5 6 8 7 8 9 10 11 10 10 9 9 10 11 11 9 10 10 10
10 9 8 7 6 6 8 2 2 7 11 12 11 13 9 6 8 10 9 9 9 9 10 9 8 8 8 9 10 10 10 10 9
12 11 10 8 7 7 8 8 3 3 5 9 11 12 11 8 6 8 11 10 9 9 9 9 8 7 6 7 8 9 9 10 10
14 12 10 9 8 7 5 7 9 4 1 4 6 8 9 8 10 8 8 10 11 8 8 9 9 7 6 5 6 7 7 8 9
17 15 14 12 10 8 7 3 1 2 4 4 5 3 5 6 7 9 9 8 10 10 7 8 9 9 7 5 4 5 6 6 7
18 18 18 19 19 17 15 13 13 13 10 9 7 6 5 4 5 7 8 10 9 10 10 8 7 8 7 5 4 4 5 5 5
21 21 21 20 21 20 20 18 19 18 16 13 12 10 8 7 4 5 7 9 9 10 10 9 9 7 8 5 3 4 4 4 4
24 23 23 23 23 23 22 22 21 21 21 17 16 17 11 10 7 5 4 8 8 9 11 11 10 11 8 7 5 3 4 3 4
29 29 29 29 29 28 28 26 26 24 22 23 21 19 19 13 11 9 8 6 8 8 9 11 10 12 12 8 8 6 5 4 3
30 29 29 29 28 28 28 27 27 27 25 26 26 24 25 23 17 15 11 9 9 8 10 10 11 11 12 12 9 9 8 5 5
30 30 30 30 29 29 29 29 29 30 28 27 28 28 29 28 27 23 19 13 11 10 11 11 10 11 13 14 11 11 10 9 6
31 31 32 32 31 31 31 31 32 32 32 31 30 30 32 32 32 28 21 18 16 15 12 11 11 12 12 13 14 12 14 13 9
34 34 34 34 34 34 33 33 34 35 34 34 34 34 33 33 33 32 30 24 20 19 18 15 13 14 13 16 15 15 12 14 15
34 34 34 34 35 35 35 35 35 35 36 36 36 37 37 37 35 34 33 30 26 23 21 20 17 14 15 15 18 16 15 13 16
36 36 35 35 35 35 36 36 36 37 37 36 37 38 39 40 40 39 36 36 29 27 27 24 25 22 17 16 16 20 18 16 15
36 36 36 37 37 37 38 37 38 37 38 38 39 39 41 43 43 41 42 39 38 33 31 31 27 26 24 19 18 20 22 19 17
35 36 36 37 38 39 39 39 39 39 40 40 41 43 45 45 47 48 46 43 45 43 37 36 33 31 26 26 23 21 24 23 20
36 37 37 38 38 39 40 40 41 41 41 43 43 44 45 48 49 51 53 51 49 48 48 43 39 37 34 32 27 27 24 26 25
37 37 38 39 39 40 40 41 42 43 44 44 46 46 47 48 50 51 55 54 55 54 52 48 45 42 39 36 31 31 30 27 28
Wind_Direction
190 177 157 143 126 104 28 268 284 306 327 335 344 10 25 2 22 27 25 27 31 34 36 36 34 41 52 54 64 64 63 67 67
212 189 176 173 160 134 114 16 344 327 330 345 354 353 4 356 347 10 26 26 31 35 29 33 31 35 46 48 54 64 63 63 67
213 210 189 179 168 165 142 121 19 355 340 341 349 359 359 3 345 345 357 16 26 32 29 27 30 31 38 48 47 57 68 67 64
218 209 202 189 179 181 168 151 99 10 347 344 344 346 349 10 5 331 341 351 8 27 25 23 23 19 31 41 47 50 61 68 67
218 212 208 205 189 186 229 162 150 148 2 324 329 342 355 359 14 352 342 345 347 8 18 19 11 22 29 34 41 43 52 59 63
219 220 219 212 207 196 193 216 283 279 238 265 283 300 320 335 351 6 346 347 342 340 6 7 7 4 28 17 24 30 34 47 51
224 229 233 231 235 237 242 251 266 280 277 260 262 256 252 266 320 341 354 350 338 332 344 346 354 352 3 19 5 12 12 17 43
235 239 239 239 242 244 250 258 265 269 275 264 256 246 244 239 233 301 330 335 339 329 329 334 332 336 352 347 0 348 10 350 8
239 243 247 248 249 250 255 260 262 268 266 259 258 271 247 251 222 228 276 310 320 327 325 324 323 321 330 340 334 336 323 341 327
247 249 250 253 254 254 254 257 260 263 265 260 259 268 268 237 249 231 230 253 289 300 309 316 318 314 312 323 315 312 308 311 311
245 245 247 248 249 251 254 254 256 258 258 258 261 261 262 265 256 254 235 230 252 271 283 297 311 311 307 305 309 303 301 292 291
243 245 246 247 249 251 253 256 256 256 257 258 258 261 261 261 264 262 258 258 252 243 260 267 289 306 308 301 299 302 292 284 276
246 248 249 249 249 250 251 252 255 256 257 256 259 260 259 261 262 262 251 259 271 262 247 261 269 285 297 297 294 287 294 287 272
244 245 248 251 251 252 251 250 250 254 257 258 257 258 262 263 261 260 257 252 249 259 263 243 253 275 280 291 290 287 282 289 281
247 248 249 249 250 251 252 252 252 251 251 255 258 258 258 261 263 263 263 259 250 243 252 261 251 244 262 275 287 283 279 277 282
250 251 252 253 254 254 254 253 251 252 253 253 254 260 261 259 260 262 264 266 256 248 246 251 261 261 245 262 274 280 277 270 274
250 251 253 254 255 256 256 256 256 254 253 253 256 256 259 263 263 258 257 260 262 255 248 249 249 260 255 256 260 271 275 271 264
251 252 252 253 254 255 256 257 257 257 257 256 254 256 256 258 261 265 264 262 261 261 257 251 249 249 255 259 256 258 270 269 262
253 254 254 254 254 255 257 258 258 258 258 259 257 255 254 256 258 260 261 261 258 258 258 256 250 248 252 256 254 256 254 263 262
255 256 256 256 256 256 256 258 259 260 260 259 260 258 257 254 253 255 260 259 259 257 256 254 252 248 246 252 251 251 252 251 256
Height
3152 3153 3152 3153 3154 3156 3158 3158 3159 3159 3159 3159 3160 3160 3159 3158 3157 3156 3155 3154 3153 3152 3151 3150 3150 3149 3148 3147 3146 3145 3144 3143 3142
3153 3153 3153 3153 3154 3154 3156 3158 3160 3160 3160 3160 3160 3161 3161 3159 3159 3158 3156 3155 3154 3153 3153 3152 3151 3151 3149 3149 3148 3147 3146 3145 3144
3152 3153 3154 3154 3154 3154 3154 3156 3158 3160 3161 3161 3161 3161 3161 3161 3160 3159 3158 3157 3155 3154 3154 3153 3152 3152 3152 3150 3150 3149 3148 3147 3147
3151 3152 3153 3154 3155 3154 3153 3154 3156 3158 3159 3161 3161 3161 3161 3161 3160 3160 3160 3159 3158 3156 3155 3155 3154 3154 3153 3153 3152 3151 3150 3149 3149
3149 3151 3152 3153 3154 3155 3155 3152 3152 3155 3156 3158 3159 3160 3160 3160 3160 3160 3160 3160 3159 3158 3156 3155 3155 3154 3154 3154 3153 3153 3152 3151 3150
3148 3149 3151 3152 3153 3154 3154 3155 3153 3153 3154 3156 3156 3157 3158 3159 3159 3159 3160 3159 3159 3159 3158 3156 3155 3154 3155 3155 3154 3154 3154 3153 3152
3144 3146 3148 3150 3150 3152 3152 3153 3153 3153 3153 3155 3154 3155 3155 3156 3157 3158 3157 3159 3159 3159 3160 3158 3156 3156 3156 3155 3155 3155 3155 3155 3154
3141 3143 3144 3146 3148 3149 3150 3150 3152 3152 3152 3153 3154 3152 3153 3154 3154 3156 3157 3158 3158 3159 3159 3159 3158 3157 3156 3156 3155 3156 3155 3156 3155
3136 3139 3140 3142 3144 3145 3147 3148 3149 3150 3150 3150 3150 3153 3152 3154 3152 3152 3153 3155 3157 3157 3158 3159 3159 3157 3156 3156 3156 3155 3156 3155 3156
3132 3133 3135 3137 3139 3140 3142 3143 3145 3146 3148 3148 3147 3150 3151 3151 3152 3151 3151 3151 3154 3155 3156 3158 3158 3157 3157 3156 3156 3157 3156 3156 3155
3125 3127 3130 3131 3133 3135 3136 3138 3140 3142 3144 3144 3145 3146 3148 3149 3150 3150 3149 3150 3150 3151 3153 3155 3157 3158 3157 3157 3157 3157 3157 3155 3155
3120 3122 3125 3127 3128 3129 3131 3132 3134 3136 3139 3140 3141 3142 3144 3144 3147 3148 3149 3149 3149 3148 3149 3151 3153 3156 3156 3156 3156 3157 3156 3156 3155
3113 3116 3119 3120 3121 3123 3125 3126 3129 3130 3132 3134 3136 3137 3139 3141 3142 3142 3144 3146 3148 3148 3146 3148 3150 3151 3154 3153 3155 3155 3156 3157 3155
3107 3109 3112 3113 3115 3117 3119 3120 3123 3125 3125 3127 3130 3131 3133 3136 3137 3137 3139 3140 3142 3145 3145 3144 3146 3148 3149 3152 3152 3154 3154 3156 3156
3100 3102 3104 3106 3108 3109 3112 3114 3117 3119 3119 3121 3123 3125 3127 3129 3131 3133 3132 3134 3137 3139 3141 3143 3142 3143 3146 3146 3149 3151 3153 3152 3154
3092 3095 3096 3098 3100 3102 3104 3107 3109 3111 3113 3115 3117 3118 3119 3122 3124 3126 3127 3128 3131 3133 3135 3136 3140 3140 3140 3142 3144 3147 3149 3150 3150
3085 3087 3089 3090 3092 3093 3095 3098 3101 3103 3105 3108 3110 3112 3113 3111 3114 3118 3120 3122 3124 3127 3129 3131 3133 3135 3137 3138 3139 3142 3144 3148 3147
3076 3079 3081 3083 3084 3085 3087 3089 3092 3094 3097 3100 3102 3103 3104 3105 3105 3107 3111 3114 3117 3120 3122 3124 3126 3129 3131 3134 3135 3137 3140 3142 3144
3068 3070 3072 3074 3075 3077 3078 3080 3082 3084 3087 3089 3092 3094 3096 3097 3097 3099 3101 3104 3108 3111 3113 3116 3119 3122 3124 3128 3130 3132 3133 3136 3139
3058 3060 3062 3064 3066 3067 3069 3071 3073 3074 3077 3079 3080 3082 3084 3087 3088 3090 3090 3093 3096 3099 3102 3106 3110 3114 3116 3119 3122 3125 3128 3130 3133